This is the latest recevied weather packets stored in our database for station/object K5SVV. If no packets are shown the sender has not sent any weather packets the latest 10 day(s).
| Time | Temp. | Humidity | Pressure | Rain* | Wind** | Luminosity | Snow |
|---|---|---|---|---|---|---|---|
| 1777898234 | 16.11° C | 83% | 1012.5 hPa | 0 mm | - | 56 W/m² | - |
| 1777897931 | 15.56° C | 83% | 1012.8 hPa | 0 mm | - | 48 W/m² | - |
| 1777897627 | 15.56° C | 83% | 1012.8 hPa | 0 mm | - | 44 W/m² | - |
| 1777897323 | 15.56° C | 84% | 1012.6 hPa | 0 mm | - | 40 W/m² | - |
| 1777897019 | 15.56° C | 84% | 1012.8 hPa | 0 mm | - | 36 W/m² | - |
| 1777896716 | 15.56° C | 84% | 1012.5 hPa | 0 mm | - | 29 W/m² | - |
| 1777896413 | 15.56° C | 84% | 1012.6 hPa | 0 mm | - | 27 W/m² | - |
| 1777896111 | 15.56° C | 84% | 1012.3 hPa | 0 mm | - | 23 W/m² | - |
| 1777895809 | 15.56° C | 84% | 1012.5 hPa | 0 mm | - | 18 W/m² | - |
| 1777895506 | 15.56° C | 84% | 1012.7 hPa | 0 mm | - | 15 W/m² | - |
| 1777895204 | 15.56° C | 84% | 1012.3 hPa | 0 mm | - | 9 W/m² | - |
| 1777894901 | 15.56° C | 84% | 1012.5 hPa | 0 mm | - | 3 W/m² | - |
| 1777894598 | 15.56° C | 84% | 1012.3 hPa | 0 mm | - | 2 W/m² | - |
| 1777894295 | 15° C | 85% | 1012.5 hPa | 0 mm | - | 0 W/m² | - |
| 1777893992 | 15° C | 85% | 1012.1 hPa | 0 mm | - | 0 W/m² | - |
| 1777893688 | 15° C | 85% | 1012.3 hPa | 0 mm | - | 0 W/m² | - |
| 1777893384 | 15° C | 85% | 1012.4 hPa | 0 mm | - | 0 W/m² | - |
| 1777893080 | 15° C | 86% | 1012.7 hPa | 0 mm | - | 0 W/m² | - |
| 1777892778 | 15° C | 85% | 1012.7 hPa | 0 mm | - | 0 W/m² | - |
| 1777892474 | 15° C | 86% | 1012.4 hPa | 0 mm | - | 0 W/m² | - |
| 1777892170 | 15° C | 85% | 1012.7 hPa | 0 mm | - | 0 W/m² | - |
| 1777891867 | 15° C | 85% | 1012.7 hPa | 0 mm | - | 0 W/m² | - |
| 1777891564 | 15° C | 85% | 1012.9 hPa | 0 mm | - | 0 W/m² | - |
| 1777891261 | 15° C | 85% | 1012.9 hPa | 0 mm | - | 0 W/m² | - |
| 1777890960 | 15° C | 84% | 1012.9 hPa | 0 mm | - | 0 W/m² | - |
* Rain latest hour (hover to see other rain measurements)
** Current wind speed in m/s (hover to see current wind gust speed)